Location: Ch?enovice
(49.7164°N, 15.2160°E)
Time: 16:42:56
(UTC+00:00)

USA 267 - Pass Details

Date: 23 May 2024
Orbit: 1100 x 1107 km, 123.0° (Epoch: 21 May)

Event Time Altitude Azimuth Distance (km) Brightness Sun altitude
Rises 01:56:55 0° 72° (ENE) 3,920 7.3 -9.0°
Reaches altitude 10° 01:59:29 10° 67° (ENE) 2,962 6.7 -8.7°
Maximum altitude 02:05:41 48° 356° (N) 1,415 4.2 -8.1°
Drops below altitude 10° 02:11:52 10° 285° (WNW) 2,961 5.2 -7.4°
Sets 02:14:26 0° 280° (W) 3,918 5.8 -7.1°
